Temperature
14 14 15 15 18 19 20 22 22 22 22 21 21 22 23 23 23 22 18 17 17 17 17 17 17 17 17 17 17 17 17 17 17 17 16 16 16 16 16 16 16 16 16 16 15 15 15 15 15
13 14 14 16 19 20 21 22 21 21 21 19 19 20 21 21 19 18 17 17 17 17 16 17 17 17 17 17 17 17 16 16 16 16 16 16 16 16 16 16 16 16 16 15 15 15 15 15 15
13 13 15 17 18 20 21 21 21 21 19 19 20 20 20 20 17 16 17 17 16 16 16 16 16 17 17 17 16 16 16 16 16 16 16 16 16 16 16 16 16 16 15 15 15 15 15 15 15
12 13 15 17 18 20 21 21 20 20 19 18 19 19 18 16 15 16 17 16 16 16 16 16 16 16 16 16 16 16 16 16 16 16 16 16 16 16 16 15 15 15 15 15 15 15 15 15 15
12 14 15 16 18 19 20 19 18 20 19 18 19 20 18 15 15 16 16 16 16 15 15 16 16 16 16 16 16 16 16 16 16 16 16 15 15 15 15 15 15 15 15 15 15 15 15 15 14
12 15 16 17 18 18 19 18 18 19 19 17 18 19 17 15 15 15 15 15 15 15 15 15 16 16 16 16 16 16 16 16 16 15 15 15 15 15 15 15 15 15 15 15 15 15 14 14 14
13 15 16 17 17 18 18 17 17 18 18 17 17 18 16 14 14 14 15 14 14 14 15 15 15 15 15 15 15 15 15 16 15 15 15 15 15 15 15 15 15 15 15 14 14 14 14 14 14
11 14 15 16 16 17 17 16 16 16 17 15 15 17 16 14 13 13 13 13 14 14 14 14 15 15 15 15 15 15 15 15 15 15 15 15 15 15 15 15 15 14 14 14 14 14 14 14 14
11 13 14 15 15 16 15 15 14 14 14 14 13 14 13 13 13 13 13 13 13 13 14 14 14 14 14 14 15 15 15 15 15 15 15 15 14 14 14 14 14 14 14 14 14 14 14 14 14
11 12 13 14 15 15 14 14 13 13 14 14 13 12 12 12 12 12 12 12 13 13 13 13 14 14 14 14 14 14 14 14 14 14 14 14 14 14 14 14 14 14 14 14 14 14 13 13 13
11 12 13 13 12 12 13 12 12 13 14 14 13 12 12 12 12 12 12 12 12 12 13 13 13 13 14 14 14 14 14 14 14 14 14 14 14 14 14 14 14 13 13 13 13 13 13 13 13
10 11 11 11 11 11 12 12 11 12 12 11 11 11 11 11 11 11 12 12 12 12 12 12 13 13 13 13 13 13 13 14 14 14 14 14 14 13 13 13 13 13 13 13 13 13 13 13 12
10 10 10 10 10 10 11 11 11 11 10 11 11 10 11 11 11 11 11 11 12 12 12 12 12 13 13 13 13 13 13 13 13 13 14 13 13 13 13 13 13 13 13 13 13 12 12 12 12
9 10 10 10 10 10 11 11 11 10 10 10 10 10 10 10 10 11 11 11 11 12 12 12 12 12 12 12 12 13 13 13 13 13 13 13 13 13 13 13 13 13 12 12 12 12 12 12 12
8 10 10 10 10 10 11 10 11 10 9 10 10 10 9 10 10 10 10 11 11 11 11 11 12 12 12 12 12 12 12 12 12 13 13 13 13 13 13 12 12 12 12 12 12 12 12 11 11
9 9 9 10 10 10 11 10 10 9 9 9 9 9 9 9 9 10 10 10 11 11 11 11 11 11 11 11 12 11 12 12 12 12 12 12 12 12 12 12 12 12 12 12 12 11 11 11 11
9 9 9 10 10 10 10 10 10 9 9 9 9 9 9 9 9 9 10 10 10 10 10 11 11 11 11 11 11 11 11 11 11 12 12 12 12 12 12 12 12 11 11 11 11 11 11 11 10
8 9 9 9 10 10 9 9 9 8 9 9 9 9 9 9 9 9 9 10 10 10 10 10 10 10 10 11 10 11 11 11 11 11 11 11 11 11 11 11 11 11 11 11 11 11 10 10 10
8 8 9 9 9 9 9 9 9 9 9 9 8 8 8 8 8 9 9 9 9 10 10 10 10 10 10 10 10 10 10 10 10 11 11 11 11 11 11 11 11 11 11 11 10 10 10 10 10
7 8 8 8 8 9 9 9 9 9 9 8 8 8 8 8 8 8 9 9 9 9 9 9 9 9 9 9 10 10 10 10 10 10 10 10 10 10 10 10 10 10 10 10 10 10 10 9 9
7 7 7 7 8 8 9 9 9 9 8 8 8 7 7 7 7 8 8 8 9 9 9 9 9 9 9 9 9 9 9 9 9 9 10 10 10 10 10 10 10 10 10 10 10 9 9 9 9
7 7 7 7 8 8 9 9 9 9 9 8 7 7 7 6 7 7 8 8 8 8 8 8 9 9 9 9 9 9 9 9 9 9 9 9 10 10 10 9 9 9 9 9 9 9 9 8 8
6 6 7 7 7 7 8 8 10 8 8 8 8 7 6 6 6 6 7 7 7 8 8 8 8 8 8 8 8 9 9 9 9 9 9 9 9 9 9 9 9 9 9 9 9 8 8 8 8
6 6 6 7 7 7 7 8 9 8 8 8 8 6 6 5 5 6 6 6 7 7 7 7 7 8 8 8 8 8 8 8 8 8 8 8 9 9 9 9 8 8 8 8 8 8 8 8 8
6 6 7 7 7 8 8 8 9 8 7 7 7 6 5 5 5 5 5 6 6 6 6 7 7 7 7 7 7 7 8 8 8 8 8 8 8 8 8 8 8 8 8 8 8 8 8 7 7
5 6 6 7 8 8 7 8 9 7 6 5 5 5 4 4 4 4 5 5 5 6 6 6 6 7 7 7 7 7 7 7 7 7 8 8 8 8 8 8 8 7 8 7 7 7 7 7 7
5 5 5 5 5 6 8 8 8 6 5 5 4 4 3 3 3 4 4 4 4 5 5 6 6 6 6 6 6 6 7 7 7 7 7 7 7 7 7 7 7 7 7 7 7 7 7 7 6
4 4 5 5 6 7 8 8 8 6 6 5 4 4 3 2 2 3 3 4 4 4 5 5 5 6 6 6 6 6 6 6 6 6 7 7 7 7 7 7 7 7 7 6 6 6 6 6 6
3 4 4 5 5 7 7 8 7 6 5 5 4 3 2 2 2 2 3 3 3 4 4 4 5 5 5 5 5 6 6 6 6 6 6 6 6 6 6 6 6 6 6 6 6 6 6 6 6
2 3 4 5 4 5 6 7 5 5 4 4 3 2 1 1 1 2 2 3 3 3 3 4 4 4 5 5 5 5 5 5 5 5 6 6 6 6 6 6 6 6 6 6 5 5 5 5 5
Wind_Speed
6 4 2 3 5 7 15 11 8 7 7 6 5 6 6 6 4 1 3 7 10 13 15 18 16 16 16 16 16 16 15 15 14 14 13 13 13 13 13 13 12 12 12 12 12 12 12 12 12
5 2 3 4 8 13 14 13 11 9 5 4 5 6 5 6 1 2 3 7 11 13 15 16 17 16 16 16 16 15 15 14 14 13 13 13 13 13 13 12 12 12 12 12 12 12 12 12 12
3 3 4 5 10 16 14 9 10 7 5 5 5 5 5 3 1 2 4 9 11 12 14 16 17 17 16 16 16 15 14 14 13 13 13 13 12 12 12 12 12 11 11 12 12 12 11 11 11
2 3 3 8 17 17 12 6 5 6 6 4 5 4 3 0 0 1 6 10 12 12 14 16 17 17 16 16 15 15 14 13 13 12 12 12 12 12 11 11 11 11 11 11 11 11 11 11 10
3 4 7 12 19 16 11 6 5 6 6 5 6 5 3 1 2 3 8 10 12 12 13 16 17 16 16 15 15 14 13 13 12 12 12 12 12 11 11 11 11 11 11 11 11 10 10 10 9
4 5 10 17 18 14 11 8 7 8 6 4 6 6 4 1 2 4 7 9 10 11 12 15 16 16 15 15 14 14 13 12 12 11 11 11 11 11 11 11 10 10 10 10 10 9 9 9 9
5 7 13 16 16 14 10 7 9 9 8 5 4 5 4 1 2 5 7 9 9 10 11 12 14 15 14 14 14 13 13 12 12 11 11 11 11 11 11 10 10 10 10 10 9 9 9 9 8
4 5 11 13 15 13 7 6 6 7 7 4 4 4 4 1 4 6 7 8 8 8 9 10 11 12 13 13 13 13 13 12 12 11 11 11 11 10 10 10 10 10 9 9 9 9 9 8 8
4 7 13 14 12 9 5 5 5 4 4 4 4 3 1 5 7 8 6 6 7 7 7 8 9 9 10 11 12 12 12 12 11 11 12 10 9 9 9 9 9 9 9 8 8 8 8 7 7
6 11 15 9 8 6 5 4 3 4 5 5 4 2 3 6 8 9 8 8 8 7 7 6 7 7 8 8 10 10 10 10 9 9 10 8 7 7 8 10 9 9 9 8 8 8 7 5 5
6 10 10 7 6 5 5 5 4 6 7 6 6 5 5 6 7 8 8 9 8 8 6 6 6 6 7 6 7 6 7 7 8 8 8 7 6 6 6 6 7 7 7 6 6 5 4 3 3
6 7 8 7 5 5 6 5 4 6 6 5 4 4 5 7 7 8 8 8 7 7 6 6 6 6 6 6 5 6 6 6 6 7 8 7 5 5 5 5 5 4 4 4 3 3 3 3 4
8 6 5 5 3 4 5 5 6 7 7 5 4 5 6 7 6 6 7 7 7 6 6 6 6 6 5 5 4 5 5 6 6 6 7 7 5 5 5 4 4 4 3 3 3 3 3 3 4
5 6 5 5 5 5 5 6 6 7 6 5 5 5 5 5 5 5 5 6 7 7 7 6 6 6 6 5 5 4 5 5 6 6 6 7 6 5 5 4 4 4 3 3 3 3 3 3 3
4 5 5 6 6 5 5 6 7 6 4 5 4 4 3 3 3 4 5 6 7 7 6 6 5 5 5 5 5 4 4 5 4 5 6 6 6 6 5 4 4 4 4 4 3 3 3 3 3
5 6 6 5 5 5 7 9 5 4 4 4 4 4 3 3 3 3 4 4 4 5 5 5 4 5 4 4 4 3 4 4 4 4 5 5 6 6 6 4 4 4 4 3 3 3 3 3 3
4 7 8 6 4 4 7 8 5 4 4 4 4 4 3 2 3 4 4 4 4 4 4 5 5 5 4 4 3 3 3 3 3 4 4 4 5 5 5 4 4 5 4 3 3 3 3 3 3
6 8 8 7 4 4 6 7 5 4 4 5 4 4 3 2 3 4 3 3 3 3 3 4 4 4 4 3 3 2 2 1 2 3 3 5 4 5 5 4 5 5 4 3 3 3 3 3 3
6 7 8 7 6 5 7 7 6 4 4 4 3 3 3 3 3 2 2 1 1 1 2 3 4 4 4 3 3 2 2 1 1 1 3 4 4 5 4 4 5 5 4 4 4 4 4 3 3
5 6 5 4 4 5 5 6 5 5 5 4 3 3 3 2 2 2 2 1 1 1 2 3 4 4 4 3 3 2 2 1 1 1 2 3 4 5 4 4 4 5 4 5 5 4 3 2 2
4 5 4 4 3 4 5 5 5 5 4 3 3 3 3 3 3 2 2 2 2 1 1 2 4 4 4 4 3 2 1 1 1 1 2 2 3 4 4 4 4 5 5 5 5 5 4 3 3
5 5 4 4 3 3 4 5 6 6 5 5 5 4 4 4 3 3 2 2 2 2 2 1 2 3 3 4 4 5 4 3 3 2 2 3 3 4 4 4 4 4 4 5 5 5 4 4 4
4 5 4 4 4 3 4 4 5 3 6 7 6 5 4 4 3 3 2 2 2 2 2 1 1 2 3 3 4 4 4 3 2 2 2 2 3 3 3 3 3 4 3 4 4 5 4 4 4
3 2 2 3 3 4 5 5 5 4 6 5 4 4 4 3 3 2 2 1 1 2 2 1 1 0 1 2 3 4 4 3 3 3 3 2 2 3 4 4 3 3 3 3 3 3 4 4 4
0 1 1 2 3 4 3 5 5 2 2 3 4 3 3 3 2 2 2 2 1 2 2 1 0 1 1 2 3 3 3 3 4 4 3 3 3 3 4 4 4 3 3 4 4 4 3 3 3
1 2 1 2 3 2 3 6 2 1 2 2 3 2 3 3 3 2 2 2 2 2 2 1 1 1 1 2 2 2 2 2 2 3 3 3 3 3 4 4 4 4 4 5 4 4 4 3 3
1 1 1 1 2 4 4 3 2 2 3 4 4 3 3 4 3 3 2 2 2 2 2 2 1 1 1 1 2 2 2 2 2 2 2 2 2 2 4 4 4 4 5 5 5 3 4 3 3
1 1 2 2 2 4 4 5 2 1 3 4 4 5 5 4 4 4 3 2 2 3 2 2 1 1 1 1 1 1 2 2 2 2 2 2 2 2 3 4 4 4 4 5 4 4 4 4 3
1 1 1 2 2 3 4 2 1 1 2 3 5 5 5 5 4 4 4 3 2 2 2 2 1 1 1 1 1 1 1 1 1 2 2 2 2 3 4 4 4 4 5 5 5 4 4 4 4
2 2 2 2 2 2 3 2 3 3 3 4 4 5 5 4 5 4 4 3 3 3 2 2 2 2 1 1 1 0 0 1 1 1 2 2 2 2 3 4 5 5 5 5 5 5 5 4 4
Wind_Direction
307 295 255 210 207 221 232 225 224 215 214 216 209 206 211 204 205 173 68 142 142 148 150 151 147 146 142 140 139 136 135 134 132 130 128 125 123 120 117 112 108 105 103 101 99 96 94 93 92
301 266 214 209 220 223 230 227 223 220 211 194 204 214 214 218 239 84 114 145 144 145 149 151 145 144 143 142 140 138 136 134 132 131 131 129 125 122 119 115 110 107 105 103 100 97 94 92 91
287 242 211 207 221 227 229 222 227 220 206 203 197 217 224 219 193 133 132 148 145 144 148 145 143 142 142 141 140 139 138 136 134 133 133 132 128 123 120 118 114 110 107 104 101 99 96 93 92
236 196 215 224 226 230 238 233 216 208 202 216 208 189 194 345 77 120 147 153 149 147 146 145 144 143 141 141 140 138 137 137 136 136 134 131 128 124 120 117 116 113 110 106 102 99 97 95 93
230 203 210 225 233 232 236 242 228 213 205 209 216 209 198 84 48 123 153 158 155 150 146 147 146 145 143 141 140 139 138 138 138 138 135 133 128 126 124 120 116 114 112 109 106 103 100 98 96
204 209 218 227 230 232 233 232 232 232 225 226 224 219 219 74 102 142 155 157 153 150 147 147 147 146 145 143 141 140 139 138 137 136 136 133 131 128 128 124 119 118 116 113 109 105 102 101 98
218 213 227 232 234 235 235 229 235 234 230 229 231 222 217 145 118 148 151 149 146 145 143 144 151 149 146 144 142 141 139 136 134 133 132 130 130 129 127 124 122 119 116 112 109 106 104 102 99
236 221 229 232 234 237 238 235 249 246 239 238 232 223 213 178 142 141 142 143 142 140 142 144 147 151 152 150 143 140 137 134 132 130 128 128 126 126 124 123 120 118 115 114 112 110 106 103 100
222 222 227 229 233 237 241 246 253 266 234 228 238 271 278 133 139 131 131 136 141 143 143 144 145 150 151 152 149 145 139 136 136 133 127 132 139 138 133 122 118 119 116 114 116 115 111 109 105
213 222 229 234 243 245 246 254 261 239 232 231 228 236 158 151 150 149 153 159 160 157 153 148 147 147 149 149 153 155 153 152 154 149 145 146 145 139 132 122 118 117 116 116 115 118 123 128 120
217 230 235 246 262 260 253 259 265 237 242 247 234 205 177 174 170 168 172 173 172 165 156 155 152 151 150 150 154 155 155 157 159 156 154 149 142 139 139 138 132 128 129 127 124 134 131 129 119
224 245 248 255 268 262 256 251 254 250 263 292 276 208 184 190 189 187 185 181 175 168 163 163 160 157 157 156 157 160 161 161 159 162 160 155 148 151 150 147 147 147 146 140 139 126 123 130 130
228 244 256 256 261 261 251 246 251 263 279 274 242 207 200 203 204 199 196 188 179 176 174 172 171 166 162 160 159 164 167 165 162 162 165 164 160 161 158 153 150 151 149 148 142 138 129 129 129
230 240 247 254 257 259 240 257 256 268 273 240 213 203 210 210 209 206 203 202 194 190 187 181 180 175 171 170 169 169 169 164 165 167 168 169 165 164 164 156 152 151 153 150 152 142 138 132 135
231 238 249 255 249 247 237 257 257 266 238 215 208 203 210 230 226 221 221 215 207 201 195 190 183 180 178 174 170 170 172 167 169 169 171 171 169 167 164 159 157 155 156 154 147 141 140 137 140
226 226 234 248 249 248 228 243 263 259 207 211 209 210 214 237 254 248 243 237 221 208 200 195 181 182 179 175 172 167 175 170 165 165 170 171 169 169 164 161 159 159 156 155 151 154 154 152 157
211 224 231 247 249 246 231 242 261 248 207 216 219 215 217 245 279 279 259 245 230 217 206 198 189 182 175 169 162 155 154 163 158 157 161 161 162 170 169 163 157 160 157 157 157 160 164 161 157
228 234 236 244 246 230 230 241 252 241 213 218 224 224 220 240 267 279 271 256 241 225 208 194 197 180 158 145 136 125 124 140 157 161 161 165 161 164 167 163 160 161 160 160 162 157 153 155 153
247 243 243 251 255 242 231 244 252 243 224 223 225 226 233 259 285 312 313 280 245 237 209 200 190 168 157 161 170 174 188 177 179 168 161 171 167 166 166 166 165 170 173 172 168 159 154 148 147
248 246 251 259 258 241 236 257 257 236 229 227 227 236 245 291 322 345 344 344 251 229 215 199 185 179 179 182 188 194 192 197 193 199 171 173 174 170 170 175 175 176 176 174 174 166 163 154 167
256 244 255 262 280 243 243 251 242 236 232 233 239 245 255 269 277 302 317 330 326 299 254 215 189 183 182 170 150 135 141 155 177 200 200 195 185 177 173 179 181 179 180 181 181 180 177 173 174
259 255 257 243 235 246 244 247 239 237 240 252 246 245 251 257 263 276 292 305 313 319 299 232 196 180 175 175 170 175 191 203 224 215 215 198 190 182 178 177 180 177 179 180 181 185 186 182 181
263 271 245 229 227 246 242 241 243 231 245 253 246 247 249 256 265 267 270 275 305 335 333 243 176 178 178 189 188 186 197 207 206 199 200 196 186 181 176 173 176 177 179 183 184 182 184 191 193
274 243 217 225 228 237 228 231 243 227 245 252 248 253 263 280 279 276 283 290 323 348 355 359 150 156 195 189 200 198 198 197 194 197 196 203 197 187 178 175 173 173 174 177 184 181 182 187 192
19 175 189 203 218 234 215 227 240 236 259 262 262 268 275 291 298 294 296 296 314 333 344 353 174 199 222 207 206 208 204 202 204 202 201 206 208 202 193 186 184 178 175 176 177 175 182 181 185
231 201 225 243 236 256 227 229 243 13 359 330 314 316 335 327 312 294 282 284 294 301 307 314 304 268 247 224 224 213 203 206 217 223 219 218 218 209 191 189 184 180 175 174 174 173 176 175 184
212 201 280 277 264 240 229 249 263 341 346 345 344 347 339 334 329 319 319 311 301 297 295 282 276 284 270 238 225 222 214 217 222 224 224 226 222 203 187 182 177 177 174 172 170 172 171 170 178
320 192 208 225 241 246 245 241 251 302 311 329 337 334 334 334 336 338 330 313 310 312 304 290 283 280 274 268 232 229 223 220 218 219 218 222 216 200 187 179 171 169 171 167 166 168 169 168 169
277 180 232 224 267 256 250 251 27 304 322 321 324 323 323 330 332 336 332 322 323 331 328 319 311 315 305 312 265 240 212 209 206 209 213 220 205 195 193 180 171 172 172 171 173 173 171 175 174
276 251 229 243 245 261 257 270 49 351 342 335 332 332 331 332 333 333 338 337 346 350 347 341 332 329 313 307 298 235 201 195 208 209 211 202 195 189 189 180 174 173 171 169 173 174 174 178 181
Height
1516 1518 1520 1523 1522 1517 1508 1502 1503 1504 1505 1507 1508 1508 1506 1507 1509 1514 1514 1512 1514 1516 1519 1521 1524 1526 1528 1530 1532 1534 1535 1536 1537 1538 1539 1539 1540 1540 1541 1541 1541 1542 1542 1542 1542 1542 1542 1542 1541
1516 1518 1521 1521 1514 1509 1503 1500 1503 1503 1506 1508 1509 1509 1508 1508 1510 1511 1510 1512 1514 1517 1519 1521 1524 1526 1528 1530 1532 1534 1535 1537 1537 1538 1539 1540 1540 1541 1541 1542 1542 1542 1542 1542 1542 1542 1542 1542 1542
1515 1517 1520 1515 1508 1500 1497 1498 1501 1504 1507 1508 1508 1508 1508 1509 1511 1511 1511 1512 1515 1517 1519 1521 1524 1526 1528 1530 1532 1534 1535 1537 1538 1539 1539 1540 1541 1541 1542 1542 1542 1543 1543 1543 1543 1543 1543 1542 1542
1515 1518 1518 1512 1502 1496 1496 1499 1503 1504 1507 1508 1507 1508 1509 1510 1510 1510 1510 1513 1515 1517 1519 1521 1524 1526 1528 1530 1532 1534 1535 1537 1538 1539 1540 1540 1541 1542 1542 1542 1543 1543 1543 1543 1543 1543 1543 1543 1542
1514 1515 1512 1507 1499 1496 1499 1502 1505 1503 1504 1506 1507 1505 1508 1509 1508 1509 1510 1513 1515 1517 1519 1521 1524 1526 1528 1530 1532 1534 1535 1536 1538 1539 1540 1541 1541 1542 1542 1543 1543 1543 1543 1543 1543 1543 1543 1543 1543
1514 1510 1506 1499 1495 1496 1500 1503 1505 1504 1504 1506 1507 1506 1507 1508 1507 1509 1510 1513 1515 1517 1519 1521 1523 1526 1528 1530 1532 1533 1535 1536 1537 1538 1540 1540 1541 1542 1542 1543 1543 1543 1543 1543 1543 1543 1543 1543 1542
1511 1506 1499 1495 1494 1496 1499 1502 1504 1503 1503 1506 1507 1506 1506 1508 1508 1509 1510 1513 1515 1517 1519 1521 1523 1525 1527 1529 1531 1533 1534 1535 1537 1538 1539 1540 1541 1542 1542 1542 1543 1543 1543 1543 1543 1543 1543 1543 1542
1508 1506 1499 1497 1496 1496 1500 1502 1504 1504 1503 1506 1507 1506 1507 1508 1508 1509 1511 1513 1515 1516 1518 1520 1522 1524 1527 1529 1531 1532 1533 1535 1536 1537 1538 1539 1540 1541 1542 1542 1542 1543 1543 1543 1543 1543 1543 1542 1542
1507 1506 1498 1497 1497 1497 1501 1502 1504 1505 1505 1505 1506 1507 1507 1507 1507 1509 1510 1512 1513 1515 1517 1519 1521 1523 1525 1527 1529 1531 1533 1534 1535 1536 1537 1538 1540 1540 1541 1541 1542 1542 1542 1543 1543 1543 1542 1542 1541
1505 1500 1496 1498 1499 1499 1502 1503 1504 1504 1503 1504 1505 1505 1506 1506 1507 1508 1509 1510 1512 1513 1515 1518 1520 1522 1524 1526 1528 1530 1531 1533 1534 1535 1536 1537 1538 1539 1540 1540 1541 1542 1542 1542 1542 1542 1542 1541 1541
1503 1498 1498 1500 1501 1502 1502 1503 1504 1503 1502 1503 1504 1504 1505 1506 1506 1507 1509 1510 1511 1513 1514 1516 1518 1520 1522 1524 1526 1528 1529 1531 1533 1534 1535 1536 1537 1538 1539 1539 1540 1541 1541 1541 1541 1541 1541 1541 1540
1503 1501 1501 1501 1502 1502 1502 1503 1503 1503 1503 1504 1504 1503 1503 1504 1505 1506 1508 1509 1511 1512 1513 1515 1517 1519 1521 1523 1524 1526 1527 1529 1530 1532 1533 1534 1535 1536 1537 1538 1539 1539 1540 1540 1540 1540 1540 1539 1539
1501 1501 1501 1501 1501 1501 1501 1501 1501 1501 1502 1502 1502 1503 1503 1503 1504 1506 1508 1509 1509 1510 1512 1513 1515 1517 1519 1521 1523 1524 1526 1527 1528 1529 1531 1532 1533 1534 1535 1536 1537 1537 1538 1538 1539 1539 1539 1538 1538
1500 1500 1500 1500 1499 1500 1500 1500 1500 1499 1500 1500 1501 1501 1502 1503 1504 1504 1506 1507 1508 1509 1511 1512 1514 1515 1517 1519 1521 1522 1524 1525 1526 1527 1528 1530 1531 1532 1533 1534 1535 1536 1536 1537 1537 1537 1537 1537 1537
1500 1499 1497 1497 1497 1498 1499 1497 1497 1498 1498 1498 1499 1500 1501 1502 1502 1503 1504 1505 1507 1508 1509 1511 1512 1514 1516 1517 1519 1520 1521 1523 1524 1525 1526 1528 1529 1530 1531 1532 1533 1534 1535 1535 1535 1536 1536 1536 1536
1499 1496 1494 1494 1495 1495 1498 1493 1496 1497 1497 1497 1497 1498 1499 1500 1501 1502 1503 1504 1505 1506 1507 1509 1510 1512 1513 1515 1516 1518 1519 1520 1522 1523 1524 1525 1526 1528 1529 1530 1531 1532 1533 1533 1534 1534 1534 1535 1535
1494 1491 1490 1491 1493 1493 1494 1493 1496 1496 1495 1495 1496 1497 1497 1498 1499 1500 1501 1502 1503 1504 1505 1506 1508 1509 1511 1513 1514 1516 1517 1518 1519 1521 1522 1523 1524 1525 1527 1528 1529 1530 1531 1531 1532 1532 1533 1533 1533
1492 1489 1488 1489 1492 1492 1492 1493 1494 1494 1494 1493 1494 1495 1495 1496 1497 1498 1499 1500 1501 1502 1503 1504 1505 1507 1508 1510 1511 1513 1514 1516 1517 1518 1520 1521 1521 1522 1524 1525 1527 1528 1529 1529 1530 1531 1531 1532 1532
1494 1491 1489 1489 1492 1492 1491 1491 1492 1492 1491 1491 1492 1493 1494 1495 1496 1496 1497 1498 1498 1499 1500 1501 1502 1503 1505 1507 1508 1510 1511 1512 1514 1515 1516 1518 1519 1520 1521 1523 1524 1525 1526 1527 1528 1529 1529 1530 1530
1494 1492 1490 1490 1491 1491 1489 1490 1490 1490 1490 1491 1491 1492 1493 1493 1493 1493 1494 1495 1496 1497 1498 1498 1500 1500 1503 1505 1506 1507 1509 1510 1511 1512 1513 1515 1516 1517 1519 1520 1521 1523 1524 1525 1525 1526 1527 1527 1528
1494 1492 1492 1492 1491 1490 1489 1487 1487 1488 1489 1490 1490 1491 1491 1491 1491 1491 1492 1492 1493 1494 1495 1496 1496 1498 1500 1502 1504 1506 1507 1508 1509 1510 1511 1512 1513 1514 1516 1517 1518 1520 1521 1522 1522 1523 1524 1525 1526
1493 1493 1493 1492 1490 1488 1487 1482 1482 1484 1486 1487 1488 1489 1489 1490 1490 1490 1489 1490 1491 1491 1493 1493 1494 1496 1498 1500 1501 1503 1504 1504 1505 1507 1508 1509 1510 1512 1513 1514 1516 1517 1518 1519 1520 1521 1522 1523 1524
1496 1495 1494 1492 1491 1491 1487 1486 1478 1482 1484 1484 1485 1486 1487 1488 1488 1487 1487 1488 1489 1490 1490 1491 1492 1494 1496 1497 1498 1500 1501 1502 1503 1504 1506 1507 1508 1509 1510 1512 1512 1514 1515 1516 1517 1519 1520 1521 1521
1498 1496 1494 1492 1489 1490 1486 1484 1476 1480 1482 1482 1484 1485 1485 1485 1485 1485 1486 1486 1487 1488 1488 1489 1490 1491 1493 1494 1495 1496 1497 1498 1500 1501 1503 1504 1505 1506 1508 1509 1510 1511 1512 1514 1515 1516 1517 1518 1518
1497 1494 1489 1487 1486 1481 1483 1483 1477 1479 1483 1483 1483 1484 1484 1483 1483 1483 1483 1484 1484 1485 1486 1486 1487 1488 1489 1491 1492 1493 1494 1495 1497 1498 1499 1501 1502 1503 1504 1506 1507 1508 1510 1511 1512 1514 1514 1515 1516
1499 1496 1494 1488 1482 1480 1484 1479 1476 1482 1484 1484 1484 1483 1482 1482 1481 1481 1481 1481 1482 1483 1483 1484 1485 1485 1487 1488 1489 1490 1491 1493 1494 1495 1496 1497 1498 1499 1500 1502 1504 1505 1507 1508 1509 1511 1512 1513 1513
1500 1498 1501 1498 1495 1488 1478 1476 1479 1482 1483 1483 1483 1482 1481 1481 1480 1479 1479 1479 1480 1480 1481 1482 1482 1483 1484 1485 1486 1487 1489 1490 1491 1492 1493 1494 1495 1496 1498 1499 1501 1502 1504 1505 1507 1508 1509 1510 1511
1504 1502 1500 1496 1489 1480 1475 1474 1473 1479 1481 1482 1482 1482 1481 1480 1479 1478 1478 1478 1478 1478 1479 1480 1480 1480 1481 1482 1484 1485 1486 1487 1488 1489 1490 1491 1492 1493 1495 1496 1498 1499 1501 1502 1503 1505 1506 1507 1508
1506 1504 1501 1497 1494 1484 1478 1475 1479 1481 1482 1483 1483 1482 1481 1479 1478 1477 1477 1477 1477 1477 1477 1477 1478 1478 1479 1480 1481 1482 1483 1484 1485 1486 1487 1488 1489 1491 1492 1494 1495 1497 1498 1500 1501 1502 1503 1504 1505
1509 1505 1503 1498 1497 1493 1483 1483 1485 1485 1485 1484 1483 1482 1480 1479 1478 1477 1476 1475 1475 1475 1475 1475 1475 1476 1477 1477 1478 1479 1480 1481 1482 1483 1485 1485 1486 1488 1489 1491 1493 1494 1495 1497 1498 1500 1501 1501 1502